Flag for U.S.A. Weather past 2 weeks in Germantown, Maryland, U.S.A.

Now
72 °F

Fog.


Feels Like: 72 °F
Forecast: 59 / 71 °F
Wind: 3 mph from North

Location: Frederick Municipal Airport

Current Time: Oct 1, 2014 at 2:31:57 PM

Latest Report: Oct 1, 2014 at 1:45 PM


Visibility: 5 mi

Pressure: 30.07 "Hg

Humidity: 78%

Dew point: 64 °F

Location of GermantownLocation

Historic Weather in Germantown — Graph

°F

Germantown temperature yesterday

Maximum temperature yesterday: 81 °F (at 2:50 PM)
Minimum temperature yesterday: 63 °F (at 11:30 PM)
Average temperature yesterday: 68 °F

Past Weeks' High & Low Weather Summary

 TemperatureHumidityPressure
High90 °F (Sep 21, 2:55 PM)100% (Sep 16, 11:10 PM)30.53 "Hg (Sep 16, 11:10 PM)
Low34 °F (Sep 28, 8:02 AM)34% (Sep 17, 3:45 PM)29.66 "Hg (Sep 21, 4:50 PM)
Average62 °F84%30.15 "Hg
* Reported Sep 16 12:45 PM — Oct 1 12:12 PM, Germantown, Weather by CustomWeather, © 2014

Note: Actual official high and low records may vary slightly from our data, if they occured in-between our weather recording intervals... More about our weather records

Advertising

Germantown weather history for previous 24 hours

 ConditionsComfort  
Time TempWeatherWind HumidityBarometerVisibility
12:12 PM
Oct 1
68 °FFog.6 mph88%30.09 "Hg4 mi
11:45 AM68 °FFog.3 mph88%30.09 "Hg4 mi
10:45 AM66 °FFog.5 mph94%30.08 "Hg2 mi
9:45 AM66 °FFog.3 mph88%30.07 "Hg2 mi
8:45 AM64 °FFog.3 mph94%30.05 "Hg2 mi
7:45 AM64 °FFog.No wind94%30.04 "Hg2 mi
6:50 AM64 °FLow clouds.3 mph94%30.02 "Hg3 mi
6:30 AM63 °FFog.5 mph94%30.02 "Hg3 mi
6:10 AM63 °FFog.3 mph94%30.01 "Hg3 mi
5:50 AM63 °FFog.5 mph94%30.00 "Hg4 mi
5:30 AM63 °FFog.5 mph94%30.00 "Hg4 mi
5:10 AM63 °FFog.5 mph94%30.00 "Hg5 mi
4:50 AM63 °FDrizzle. Mostly cloudy.6 mph94%30.00 "Hg5 mi
4:30 AM63 °FLight rain. Mostly cloudy.8 mph94%29.99 "Hg7 mi
4:10 AM63 °FLow clouds.5 mph100%30.00 "Hg7 mi
3:50 AM63 °FMostly cloudy.6 mph94%30.00 "Hg7 mi
3:30 AM63 °FMostly cloudy.7 mph100%30.00 "Hg7 mi
3:10 AM63 °FLight rain. Mostly cloudy.6 mph100%29.99 "Hg7 mi
2:50 AM63 °FMostly cloudy.3 mph100%30.00 "Hg7 mi
2:30 AM63 °FFog.7 mph100%30.01 "Hg5 mi
2:10 AM63 °FFog.6 mph100%30.00 "Hg5 mi
1:50 AM63 °FFog.3 mph100%30.00 "Hg5 mi
1:30 AM63 °FFog.5 mph100%29.99 "Hg5 mi
1:10 AM63 °FFog.3 mph100%29.99 "Hg5 mi
12:50 AM63 °FFog.5 mph100%29.99 "Hg5 mi
12:30 AM64 °FFog.7 mph94%29.99 "Hg5 mi
12:10 AM64 °FPassing clouds.7 mph94%29.99 "Hg7 mi
11:50 PM
Sep 30
63 °FPassing clouds.5 mph100%29.98 "Hg7 mi
11:30 PM63 °FFog.6 mph100%29.98 "Hg5 mi
11:10 PM64 °FPassing clouds.No wind94%29.98 "Hg7 mi
10:50 PM64 °FThundershowers. Passing clouds.No wind94%29.97 "Hg10 mi
10:30 PM64 °FDrizzle. Overcast.3 mph94%29.98 "Hg10 mi
10:10 PM64 °FThundershowers. Overcast.No wind94%29.97 "Hg7 mi
9:50 PM64 °FThundershowers. Mostly cloudy.6 mph94%29.97 "Hg10 mi
9:30 PM66 °FStrong thunderstorms. Overcast.5 mph88%29.98 "Hg4 mi
9:10 PM68 °FThunderstorms. Overcast.12 mph88%29.98 "Hg7 mi
8:50 PM70 °FThunderstorms. Overcast.No wind88%29.97 "Hg5 mi
7:55 PM70 °FThundershowers. Passing clouds.No wind83%29.92 "Hg10 mi
6:45 PM73 °FPartly sunny.No wind74%29.90 "Hg10 mi
5:48 PM79 °FScattered clouds.5 mph61%29.88 "Hg10 mi
4:45 PM81 °FScattered clouds.9 mph54%29.88 "Hg10 mi
3:45 PM81 °FScattered clouds.3 mph58%29.89 "Hg10 mi
2:50 PM81 °FScattered clouds.5 mph58%29.91 "Hg10 mi
Weather by CustomWeather, © 2014

See weather overviewHow to use our weather pages